HULIANWANG DIGUI 6J

Last updated on Thu Aug 14 2025 00:02:07 GMT+0000 (Coordinated Universal Time)

1 65051U 25162J 25224.72890653 -.00000001 00000+0 91178-4 0 9999 2 65051 50.0060 320.4068 0005675 324.6562 35.3967 14.06428068 1894

Satellite not in orbit

HULIANWANG DIGUI 6J